Weather History for Louisville Bowman, KY

Change the Weather History Date:

Wednesday, February 27, 2013

  Actual Average Record
Temperature  
Mean Temperature 38 °F 42 °F  
Max Temperature 41 °F 50 °F 71 °F (1955)
Min Temperature 34 °F 33 °F 9 °F (1963)
Degree Days  
Heating Degree Days 27 23  
Month to date heating degree days 750 728  
Since 1 July heating degree days 3201 3337  
Cooling Degree Days 0 0  
Month to date cooling degree days 0 0  
Year to date cooling degree days 0 0  
Moisture  
Dew Point 31 °F    
Average Humidity 74    
Maximum Humidity 89    
Minimum Humidity 59    
Precipitation  
Precipitation 0.03 in 0.11 in 1.94 in (1962)
Month to date precipitation 1.84 3.07  
Year to date precipitation 6.71 6.45  
Sea Level Pressure  
Sea Level Pressure 29.74 in    
Wind  
Wind Speed 11 mph (SW)    
Max Wind Speed 21 mph    
Max Gust Speed 29 mph    
Visibility 9 miles    
Events Rain , Snow    
T = Trace of Precipitation, MM = Missing Value Source: NWS Daily Summary

Daily Weather History Graph

Daily Weather History Graph

Search for Another Location

Airport:

Trip Planner

Search our weather history database for the weather conditions in past years. The results will help you decide how hot, cold, wet, or windy it might be!

Date:

Astronomy

Feb. 27, 2013 Rise Set
Actual Time 7:16 AM EST 6:34 PM EST
Civil Twilight 6:50 AM EST 7:00 PM EST
Nautical Twilight 6:19 AM EST 7:31 PM EST
Astronomical Twilight 5:49 AM EST 8:01 PM EST
Moon 8:51 PM EST (2/27) 7:54 AM EST (2/27)
Length of Visible Light 12h 10m
Length of Day
11h 17m
Waning Gibbous, 96% of the Moon is Illuminated
Feb 27
Waning Gibbous
Mar 4
Last Quarter
Mar 11
New
Mar 19
First Quarter
Mar 27
Full

Hourly Weather History & Observations

Time (EST) Temp. Windchill Dew Point Humidity Pressure Visibility Wind Dir Wind Speed Gust Speed Precip Events Conditions
12:53 AM 39.9 °F 32.9 °F 35.1 °F 83% 29.61 in 10.0 mi SSW 11.5 mph - N/A   Overcast
1:53 AM 39.9 °F 33.9 °F 35.1 °F 83% 29.62 in 10.0 mi SW 9.2 mph 17.3 mph N/A   Overcast
2:39 AM 39.2 °F 33.0 °F 35.6 °F 87% 29.62 in 10.0 mi SW 9.2 mph 19.6 mph N/A   Overcast
2:53 AM 39.2 °F 30.8 °F 35.6 °F 87% 29.63 in 9.0 mi SW 15.0 mph 23.0 mph N/A Rain Light Rain
3:11 AM 39.2 °F 32.5 °F 35.6 °F 87% 29.63 in 10.0 mi SW 10.4 mph - 0.00 in   Overcast
3:28 AM 39.2 °F 31.6 °F 35.6 °F 87% 29.63 in 10.0 mi SW 12.7 mph 17.3 mph 0.00 in   Overcast
3:53 AM 39.9 °F 32.5 °F 35.1 °F 83% 29.63 in 10.0 mi SW 12.7 mph 21.9 mph 0.00 in   Overcast
4:32 AM 39.2 °F 31.6 °F 33.8 °F 81% 29.64 in 10.0 mi SW 12.7 mph 20.7 mph N/A   Overcast
4:53 AM 39.9 °F 33.9 °F 35.1 °F 83% 29.65 in 10.0 mi SW 9.2 mph 18.4 mph N/A   Overcast
5:53 AM 39.9 °F 32.9 °F 34.0 °F 79% 29.67 in 10.0 mi WSW 11.5 mph 23.0 mph N/A   Overcast
6:18 AM 39.2 °F 31.6 °F 33.8 °F 81% 29.67 in 10.0 mi WSW 12.7 mph 21.9 mph N/A   Overcast
6:53 AM 39.0 °F 30.6 °F 32.0 °F 76% 29.70 in 10.0 mi WSW 15.0 mph 21.9 mph N/A   Overcast
7:53 AM 37.9 °F 32.1 °F 33.1 °F 83% 29.72 in 10.0 mi WSW 8.1 mph - 0.01 in   Overcast
8:53 AM 37.0 °F 31.6 °F 34.0 °F 89% 29.74 in 8.0 mi SW 6.9 mph - N/A   Overcast
9:25 AM 37.4 °F 29.3 °F 33.8 °F 87% 29.74 in 10.0 mi WSW 12.7 mph 20.7 mph N/A   Overcast
9:53 AM 37.9 °F 29.6 °F 32.0 °F 79% 29.75 in 10.0 mi SW 13.8 mph 23.0 mph N/A   Overcast
10:53 AM 37.0 °F 29.3 °F 30.9 °F 79% 29.76 in 10.0 mi SW 11.5 mph 23.0 mph N/A   Overcast
11:53 AM 37.9 °F 30.9 °F 30.9 °F 76% 29.76 in 10.0 mi SW 10.4 mph 21.9 mph N/A   Overcast
12:53 PM 37.9 °F 29.6 °F 30.9 °F 76% 29.76 in 10.0 mi SW 13.8 mph 20.7 mph N/A   Overcast
1:41 PM 37.4 °F 28.5 °F 30.2 °F 75% 29.74 in 10.0 mi WSW 15.0 mph 18.4 mph N/A   Overcast
1:53 PM 39.0 °F 30.6 °F 28.9 °F 67% 29.75 in 10.0 mi SW 15.0 mph 21.9 mph N/A   Overcast
2:45 PM 39.2 °F 32.0 °F 28.4 °F 65% 29.73 in 10.0 mi SW 11.5 mph 21.9 mph N/A   Overcast
2:53 PM 39.9 °F 31.4 °F 28.0 °F 63% 29.74 in 10.0 mi WSW 16.1 mph 23.0 mph N/A   Overcast
3:53 PM 39.0 °F 30.6 °F 26.1 °F 60% 29.76 in 10.0 mi WSW 15.0 mph 25.3 mph N/A   Overcast
4:34 PM 37.4 °F 29.8 °F 28.4 °F 70% 29.76 in 8.0 mi WSW 11.5 mph 17.3 mph 0.00 in Snow Light Snow
4:43 PM 37.4 °F 30.3 °F 28.4 °F 70% 29.76 in 9.0 mi SW 10.4 mph 21.9 mph 0.00 in Rain Light Rain
4:53 PM 37.9 °F 30.0 °F 28.0 °F 68% 29.77 in 10.0 mi WSW 12.7 mph 18.4 mph 0.00 in   Overcast
5:53 PM 37.9 °F 30.5 °F 28.9 °F 70% 29.78 in 10.0 mi SW 11.5 mph 16.1 mph N/A   Overcast
6:23 PM 37.4 °F 29.3 °F 28.4 °F 70% 29.77 in 10.0 mi SW 12.7 mph 18.4 mph N/A   Overcast
6:35 PM 37.4 °F 29.8 °F 28.4 °F 70% 29.78 in 10.0 mi SW 11.5 mph 17.3 mph N/A   Overcast
6:53 PM 36.0 °F 28.5 °F 30.9 °F 82% 29.80 in 3.0 mi WSW 10.4 mph - 0.01 in Snow Light Snow
7:16 PM 35.6 °F 28.6 °F 30.2 °F 81% 29.80 in 10.0 mi WSW 9.2 mph 17.3 mph 0.00 in   Overcast
7:49 PM 35.6 °F 29.2 °F 30.2 °F 81% 29.79 in 10.0 mi SW 8.1 mph 18.4 mph 0.00 in   Overcast
7:53 PM 36.0 °F 29.0 °F 30.9 °F 82% 29.81 in 10.0 mi SW 9.2 mph 17.3 mph 0.00 in Rain Light Rain
8:19 PM 35.6 °F 30.7 °F 32.0 °F 87% 29.80 in 7.0 mi SW 5.8 mph - 0.00 in   Overcast
8:53 PM 34.0 °F 26.6 °F 32.0 °F 92% 29.81 in 6.0 mi WSW 9.2 mph - 0.01 in Snow Light Snow
9:00 PM 33.8 °F 25.8 °F 30.2 °F 87% 29.80 in 4.0 mi WSW 10.4 mph - 0.00 in Snow Light Snow
9:15 PM 33.8 °F 26.4 °F 30.2 °F 87% 29.80 in 9.0 mi WSW 9.2 mph - 0.00 in   Overcast
9:49 PM 33.8 °F 25.8 °F 30.2 °F 87% 29.80 in 10.0 mi WSW 10.4 mph - 0.00 in   Overcast
9:53 PM 34.0 °F 28.0 °F 30.9 °F 89% 29.81 in 10.0 mi WSW 6.9 mph - 0.00 in   Overcast
10:53 PM 34.0 °F 26.0 °F 30.0 °F 85% 29.81 in 10.0 mi WSW 10.4 mph - N/A   Overcast
11:45 PM 33.8 °F 25.8 °F 30.2 °F 87% 29.80 in 10.0 mi WSW 10.4 mph - N/A   Overcast
11:53 PM 34.0 °F 28.0 °F 30.0 °F 85% 29.81 in 10.0 mi WSW 6.9 mph - N/A   Overcast